Time,TemperatureF,DewpointF,PressureIn,WindDirection,WindDirectionDegrees,WindSpeedMPH,WindSpeedGustMPH,Humidity,HourlyPrecipIn,Conditions,Clouds,dailyrainin,SoftwareType,DateUTC
2013-05-10 00:00:00,45.5,42.0,29.37,NW,315,0.9,2.2,87,0.00,,,0.00,WUHU216HW,2013-05-09 23:00:00,
2013-05-10 00:05:00,45.7,42.1,29.37,WSW,248,1.1,1.3,87,0.00,,,0.00,WUHU216HW,2013-05-09 23:05:00,
2013-05-10 00:10:00,45.7,42.1,29.37,NW,315,0.4,1.1,87,0.00,,,0.00,WUHU216HW,2013-05-09 23:10:00,
2013-05-10 00:16:00,45.7,41.8,29.37,WNW,293,3.8,3.8,86,0.00,,,0.00,WUHU216HW,2013-05-09 23:16:00,
2013-05-10 00:21:00,45.7,41.8,29.37,North,0,0.2,3.8,86,0.00,,,0.00,WUHU216HW,2013-05-09 23:21:00,
2013-05-10 00:26:00,45.7,41.8,29.37,ENE,68,1.1,3.8,86,0.00,,,0.00,WUHU216HW,2013-05-09 23:26:00,
2013-05-10 00:31:00,45.7,41.8,29.37,SW,225,1.1,1.1,86,0.00,,,0.00,WUHU216HW,2013-05-09 23:31:00,
2013-05-10 00:36:00,45.7,42.1,29.37,WNW,293,0.7,1.1,87,0.00,,,0.00,WUHU216HW,2013-05-09 23:36:00,
2013-05-10 00:41:00,45.7,41.8,29.38,North,0,1.3,1.3,86,0.00,,,0.00,WUHU216HW,2013-05-09 23:41:00,
2013-05-10 00:46:00,45.7,42.1,29.38,WNW,293,0.4,1.3,87,0.00,,,0.00,WUHU216HW,2013-05-09 23:46:00,
2013-05-10 00:51:00,45.7,42.1,29.38,NNW,338,1.1,1.6,87,0.00,,,0.00,WUHU216HW,2013-05-09 23:51:00,
2013-05-10 00:56:00,45.7,42.1,29.38,NW,315,1.1,1.6,87,0.00,,,0.00,WUHU216HW,2013-05-09 23:56:00,
2013-05-10 01:01:00,45.9,42.3,29.38,NNW,338,0.4,1.1,87,0.00,,,0.00,WUHU216HW,2013-05-10 00:01:00,
2013-05-10 01:06:00,45.9,42.3,29.39,South,180,0.4,1.1,87,0.00,,,0.00,WUHU216HW,2013-05-10 00:06:00,
2013-05-10 01:11:00,46.1,42.1,29.39,WNW,293,1.8,4.3,86,0.00,,,0.00,WUHU216HW,2013-05-10 00:11:00,
2013-05-10 01:16:00,46.3,42.0,29.39,NW,315,2.5,4.3,85,0.00,,,0.00,WUHU216HW,2013-05-10 00:16:00,
2013-05-10 01:21:00,46.3,42.0,29.39,WNW,293,0.4,2.5,85,0.00,,,0.00,WUHU216HW,2013-05-10 00:21:00,
2013-05-10 01:26:00,46.1,41.9,29.40,SSE,158,2.0,2.5,85,0.00,,,0.00,WUHU216HW,2013-05-10 00:26:00,
2013-05-10 01:31:00,46.3,42.0,29.40,NW,315,0.9,2.0,85,0.00,,,0.00,WUHU216HW,2013-05-10 00:31:00,
2013-05-10 01:36:00,46.3,42.0,29.40,WNW,293,0.4,2.0,85,0.00,,,0.00,WUHU216HW,2013-05-10 00:36:00,
2013-05-10 01:41:00,46.3,42.0,29.40,WNW,293,1.8,1.8,85,0.00,,,0.00,WUHU216HW,2013-05-10 00:41:00,
2013-05-10 01:46:00,46.1,41.9,29.40,NW,315,1.6,1.8,85,0.00,,,0.00,WUHU216HW,2013-05-10 00:46:00,
2013-05-10 01:51:00,46.1,41.9,29.40,SSW,203,0.4,1.6,85,0.00,,,0.00,WUHU216HW,2013-05-10 00:51:00,
2013-05-10 01:56:00,45.9,41.7,29.40,WNW,293,1.1,1.6,85,0.00,,,0.00,WUHU216HW,2013-05-10 00:56:00,
2013-05-10 02:01:00,45.7,41.5,29.40,West,270,0.2,1.1,85,0.00,,,0.00,WUHU216HW,2013-05-10 01:01:00,
2013-05-10 02:06:00,45.7,41.8,29.40,West,270,0.0,0.2,86,0.00,,,0.00,WUHU216HW,2013-05-10 01:06:00,
2013-05-10 02:11:00,45.7,41.8,29.40,West,270,0.0,0.2,86,0.00,,,0.00,WUHU216HW,2013-05-10 01:11:00,
2013-05-10 02:16:00,45.7,41.8,29.40,West,270,0.0,0.7,86,0.00,,,0.00,WUHU216HW,2013-05-10 01:16:00,
2013-05-10 02:21:00,45.5,41.6,29.40,WSW,248,0.0,0.7,86,0.00,,,0.00,WUHU216HW,2013-05-10 01:21:00,
2013-05-10 02:26:00,45.5,41.6,29.40,West,270,0.0,0.0,86,0.00,,,0.00,WUHU216HW,2013-05-10 01:26:00,
2013-05-10 02:31:00,45.4,41.4,29.40,WSW,248,0.2,0.2,86,0.00,,,0.00,WUHU216HW,2013-05-10 01:31:00,
2013-05-10 02:36:00,45.2,41.6,29.40,WNW,293,0.4,4.0,87,0.00,,,0.00,WUHU216HW,2013-05-10 01:36:00,
2013-05-10 02:41:00,45.0,41.4,29.40,West,270,0.4,4.0,87,0.00,,,0.00,WUHU216HW,2013-05-10 01:41:00,
2013-05-10 02:46:00,45.0,41.4,29.40,WSW,248,0.4,0.4,87,0.00,,,0.00,WUHU216HW,2013-05-10 01:46:00,
2013-05-10 02:51:00,44.8,41.2,29.41,West,270,0.9,1.3,87,0.00,,,0.00,WUHU216HW,2013-05-10 01:51:00,
2013-05-10 02:56:00,44.8,41.2,29.40,WNW,293,0.2,1.3,87,0.00,,,0.00,WUHU216HW,2013-05-10 01:56:00,
2013-05-10 03:01:00,44.8,41.2,29.41,West,270,1.6,1.6,87,0.00,,,0.00,WUHU216HW,2013-05-10 02:01:00,
2013-05-10 03:06:00,44.8,40.9,29.41,WNW,293,0.2,1.6,86,0.00,,,0.00,WUHU216HW,2013-05-10 02:06:00,
2013-05-10 03:11:00,44.6,40.7,29.41,WNW,293,1.3,1.6,86,0.00,,,0.00,WUHU216HW,2013-05-10 02:11:00,
2013-05-10 03:16:00,44.6,40.7,29.41,WNW,293,0.0,1.3,86,0.00,,,0.00,WUHU216HW,2013-05-10 02:16:00,
2013-05-10 03:21:00,44.5,40.5,29.41,West,270,0.7,1.3,86,0.00,,,0.00,WUHU216HW,2013-05-10 02:21:00,
2013-05-10 03:26:00,44.1,40.1,29.42,SSE,158,0.2,0.7,86,0.00,,,0.00,WUHU216HW,2013-05-10 02:26:00,
2013-05-10 03:31:00,43.9,40.0,29.42,NW,315,1.3,1.3,86,0.00,,,0.00,WUHU216HW,2013-05-10 02:31:00,
2013-05-10 03:36:00,43.9,40.0,29.42,WNW,293,0.4,1.3,86,0.00,,,0.00,WUHU216HW,2013-05-10 02:36:00,
2013-05-10 03:41:00,43.9,40.0,29.42,WNW,293,1.6,1.6,86,0.00,,,0.00,WUHU216HW,2013-05-10 02:41:00,
2013-05-10 03:46:00,43.6,39.6,29.42,WNW,293,0.4,1.6,86,0.00,,,0.00,WUHU216HW,2013-05-10 02:46:00,
2013-05-10 03:51:00,43.6,39.6,29.42,WNW,293,0.2,0.4,86,0.00,,,0.00,WUHU216HW,2013-05-10 02:51:00,
2013-05-10 03:56:00,43.6,39.6,29.42,WNW,293,0.0,0.4,86,0.00,,,0.00,WUHU216HW,2013-05-10 02:56:00,
2013-05-10 04:01:00,43.4,39.4,29.42,WNW,293,0.0,0.2,86,0.00,,,0.00,WUHU216HW,2013-05-10 03:01:00,
2013-05-10 04:06:00,42.8,38.6,29.43,WNW,293,0.0,0.0,85,0.00,,,0.00,WUHU216HW,2013-05-10 03:06:00,
2013-05-10 04:11:00,42.8,38.6,29.42,WNW,293,0.0,0.0,85,0.00,,,0.00,WUHU216HW,2013-05-10 03:11:00,
2013-05-10 04:16:00,42.8,38.9,29.42,WNW,293,0.0,0.0,86,0.00,,,0.00,WUHU216HW,2013-05-10 03:16:00,
2013-05-10 04:21:00,42.7,38.4,29.42,WNW,293,0.0,0.0,85,0.00,,,0.00,WUHU216HW,2013-05-10 03:21:00,
2013-05-10 04:26:00,42.3,38.1,29.43,WNW,293,0.0,0.0,85,0.00,,,0.00,WUHU216HW,2013-05-10 03:26:00,
2013-05-10 04:31:00,42.1,37.9,29.43,WNW,293,0.0,0.0,85,0.00,,,0.00,WUHU216HW,2013-05-10 03:31:00,
2013-05-10 04:36:00,42.1,38.2,29.43,WNW,293,0.0,0.0,86,0.00,,,0.00,WUHU216HW,2013-05-10 03:36:00,
2013-05-10 04:41:00,41.9,38.4,29.43,WNW,293,0.0,0.0,87,0.00,,,0.00,WUHU216HW,2013-05-10 03:41:00,
2013-05-10 04:46:00,41.9,38.0,29.43,WNW,293,0.0,0.0,86,0.00,,,0.00,WUHU216HW,2013-05-10 03:46:00,
2013-05-10 04:51:00,41.8,38.2,29.43,WNW,293,0.2,0.2,87,0.00,,,0.00,WUHU216HW,2013-05-10 03:51:00,
2013-05-10 04:56:00,41.4,37.4,29.43,WNW,293,0.0,0.2,86,0.00,,,0.00,WUHU216HW,2013-05-10 03:56:00,
2013-05-10 05:01:00,41.2,37.6,29.43,WNW,293,0.0,0.0,87,0.00,,,0.00,WUHU216HW,2013-05-10 04:01:00,
2013-05-10 05:06:00,40.9,36.9,29.43,WNW,293,0.0,0.0,86,0.00,,,0.00,WUHU216HW,2013-05-10 04:06:00,
2013-05-10 05:11:00,40.5,36.6,29.43,WNW,293,0.0,0.0,86,0.00,,,0.00,WUHU216HW,2013-05-10 04:11:00,
2013-05-10 05:16:00,40.0,36.4,29.43,WNW,293,0.0,0.2,87,0.00,,,0.00,WUHU216HW,2013-05-10 04:16:00,
2013-05-10 05:21:00,39.8,36.2,29.43,WNW,293,0.0,0.2,87,0.00,,,0.00,WUHU216HW,2013-05-10 04:21:00,
2013-05-10 05:26:00,40.0,36.4,29.44,WNW,293,0.0,0.0,87,0.00,,,0.00,WUHU216HW,2013-05-10 04:26:00,
2013-05-10 05:31:00,40.1,36.5,29.44,WNW,293,0.0,0.4,87,0.00,,,0.00,WUHU216HW,2013-05-10 04:31:00,
2013-05-10 05:36:00,40.3,36.7,29.44,WNW,293,0.0,0.4,87,0.00,,,0.00,WUHU216HW,2013-05-10 04:36:00,
2013-05-10 05:41:00,40.3,36.7,29.44,WNW,293,0.0,0.0,87,0.00,,,0.00,WUHU216HW,2013-05-10 04:41:00,
2013-05-10 05:46:00,40.3,36.7,29.44,WNW,293,0.0,0.0,87,0.00,,,0.00,WUHU216HW,2013-05-10 04:46:00,
2013-05-10 05:51:00,40.5,37.2,29.44,WNW,293,0.0,0.0,88,0.00,,,0.00,WUHU216HW,2013-05-10 04:51:00,
2013-05-10 05:56:00,40.5,36.9,29.44,WNW,293,0.0,0.0,87,0.00,,,0.00,WUHU216HW,2013-05-10 04:56:00,
2013-05-10 06:01:00,40.3,37.0,29.45,WNW,293,0.2,0.2,88,0.00,,,0.00,WUHU216HW,2013-05-10 05:01:00,
2013-05-10 06:06:00,40.9,37.5,29.45,West,270,0.0,0.2,88,0.00,,,0.00,WUHU216HW,2013-05-10 05:06:00,
2013-05-10 06:11:00,40.9,37.5,29.45,WNW,293,0.2,0.2,88,0.00,,,0.00,WUHU216HW,2013-05-10 05:11:00,
2013-05-10 06:16:00,41.0,37.7,29.45,WNW,293,0.0,0.2,88,0.00,,,0.00,WUHU216HW,2013-05-10 05:16:00,
2013-05-10 06:21:00,41.2,37.9,29.45,West,270,0.4,0.4,88,0.00,,,0.00,WUHU216HW,2013-05-10 05:21:00,
2013-05-10 06:26:00,41.4,38.1,29.46,West,270,0.9,0.9,88,0.00,,,0.00,WUHU216HW,2013-05-10 05:26:00,
2013-05-10 06:31:00,41.8,38.4,29.46,West,270,1.1,1.1,88,0.00,,,0.00,WUHU216HW,2013-05-10 05:31:00,
2013-05-10 06:36:00,42.5,39.2,29.46,WNW,293,2.0,2.0,88,0.00,,,0.00,WUHU216HW,2013-05-10 05:36:00,
2013-05-10 06:41:00,43.2,39.6,29.46,WNW,293,0.0,2.0,87,0.00,,,0.00,WUHU216HW,2013-05-10 05:41:00,
2013-05-10 06:46:00,43.2,39.6,29.47,WNW,293,0.4,0.4,87,0.00,,,0.00,WUHU216HW,2013-05-10 05:46:00,
2013-05-10 06:51:00,43.2,39.6,29.47,WNW,293,2.0,2.0,87,0.00,,,0.00,WUHU216HW,2013-05-10 05:51:00,
2013-05-10 06:56:00,43.4,40.1,29.47,West,270,1.8,2.0,88,0.00,,,0.00,WUHU216HW,2013-05-10 05:56:00,
2013-05-10 07:01:00,43.9,40.6,29.47,WNW,293,1.3,2.5,88,0.00,,,0.00,WUHU216HW,2013-05-10 06:01:00,
2013-05-10 07:06:00,44.3,41.0,29.47,WNW,293,0.4,2.5,88,0.00,,,0.00,WUHU216HW,2013-05-10 06:06:00,
2013-05-10 07:11:00,44.3,40.7,29.47,WNW,293,0.7,1.3,87,0.00,,,0.00,WUHU216HW,2013-05-10 06:11:00,
2013-05-10 07:16:00,44.8,41.2,29.47,WNW,293,1.1,1.1,87,0.00,,,0.00,WUHU216HW,2013-05-10 06:16:00,
2013-05-10 07:21:00,44.8,41.2,29.47,WNW,293,2.5,2.5,87,0.00,,,0.00,WUHU216HW,2013-05-10 06:21:00,
2013-05-10 07:26:00,45.0,41.4,29.47,NW,315,0.2,2.5,87,0.00,,,0.00,WUHU216HW,2013-05-10 06:26:00,
2013-05-10 07:31:00,45.0,41.4,29.47,WNW,293,0.4,2.5,87,0.00,,,0.00,WUHU216HW,2013-05-10 06:31:00,
2013-05-10 07:36:00,45.2,41.6,29.47,WSW,248,0.4,1.8,87,0.00,,,0.00,WUHU216HW,2013-05-10 06:36:00,
2013-05-10 07:41:00,45.4,41.8,29.48,West,270,0.0,1.8,87,0.00,,,0.00,WUHU216HW,2013-05-10 06:41:00,
2013-05-10 07:46:00,45.5,42.0,29.48,NW,315,0.4,0.4,87,0.00,,,0.00,WUHU216HW,2013-05-10 06:46:00,
2013-05-10 07:51:00,46.1,42.1,29.48,WNW,293,1.8,1.8,86,0.00,,,0.00,WUHU216HW,2013-05-10 06:51:00,
2013-05-10 07:56:00,46.4,42.5,29.48,SSE,158,1.3,1.8,86,0.00,,,0.00,WUHU216HW,2013-05-10 06:56:00,
2013-05-10 08:01:00,46.8,42.8,29.48,WNW,293,1.3,1.8,86,0.00,,,0.00,WUHU216HW,2013-05-10 07:01:00,
2013-05-10 08:06:00,47.9,43.6,29.48,West,270,2.7,2.7,85,0.00,,,0.00,WUHU216HW,2013-05-10 07:06:00,
2013-05-10 08:11:00,49.7,45.6,29.48,SSE,158,1.6,2.7,86,0.00,,,0.00,WUHU216HW,2013-05-10 07:11:00,
2013-05-10 08:16:00,50.0,45.6,29.49,NNW,338,0.4,1.6,85,0.00,,,0.00,WUHU216HW,2013-05-10 07:16:00,
2013-05-10 08:21:00,50.4,45.1,29.49,NW,315,2.5,2.5,82,0.00,,,0.00,WUHU216HW,2013-05-10 07:21:00,
2013-05-10 08:26:00,50.6,45.3,29.49,NW,315,2.7,2.7,82,0.00,,,0.00,WUHU216HW,2013-05-10 07:26:00,
2013-05-10 08:31:00,51.8,45.9,29.50,WNW,293,0.2,2.7,80,0.00,,,0.00,WUHU216HW,2013-05-10 07:31:00,
2013-05-10 08:36:00,52.9,45.9,29.50,WNW,293,3.4,3.4,77,0.00,,,0.00,WUHU216HW,2013-05-10 07:36:00,
2013-05-10 08:41:00,53.8,46.8,29.50,NW,315,0.4,3.4,77,0.00,,,0.00,WUHU216HW,2013-05-10 07:41:00,
2013-05-10 08:46:00,55.6,48.5,29.50,WNW,293,1.8,3.4,77,0.00,,,0.00,WUHU216HW,2013-05-10 07:46:00,
2013-05-10 08:51:00,56.0,47.8,29.49,WNW,293,3.1,3.1,74,0.00,,,0.00,WUHU216HW,2013-05-10 07:51:00,
2013-05-10 08:56:00,57.2,49.0,29.50,ENE,68,1.6,3.1,74,0.00,,,0.00,WUHU216HW,2013-05-10 07:56:00,
2013-05-10 09:01:00,59.0,48.9,29.50,South,180,2.2,3.1,69,0.00,,,0.00,WUHU216HW,2013-05-10 08:01:00,
2013-05-10 09:06:00,60.8,49.5,29.50,WNW,293,2.5,2.9,66,0.00,,,0.00,WUHU216HW,2013-05-10 08:06:00,
2013-05-10 09:11:00,60.1,47.9,29.51,NW,315,2.2,2.9,64,0.00,,,0.00,WUHU216HW,2013-05-10 08:11:00,
2013-05-10 09:16:00,58.3,47.0,29.51,WNW,293,0.0,2.5,66,0.00,,,0.00,WUHU216HW,2013-05-10 08:16:00,
2013-05-10 09:21:00,56.0,46.0,29.51,SW,225,0.4,2.2,69,0.00,,,0.00,WUHU216HW,2013-05-10 08:21:00,
2013-05-10 09:26:00,54.7,45.2,29.51,SE,135,0.7,0.7,70,0.00,,,0.00,WUHU216HW,2013-05-10 08:26:00,
2013-05-10 09:31:00,53.6,44.8,29.51,ENE,68,1.1,1.1,72,0.00,,,0.00,WUHU216HW,2013-05-10 08:31:00,
2013-05-10 09:36:00,53.6,45.2,29.52,North,0,1.1,1.1,73,0.00,,,0.00,WUHU216HW,2013-05-10 08:36:00,
2013-05-10 09:41:00,54.5,46.1,29.51,SSE,158,1.1,1.1,73,0.00,,,0.00,WUHU216HW,2013-05-10 08:41:00,
2013-05-10 09:46:00,56.9,47.2,29.52,SSW,203,2.0,2.0,70,0.00,,,0.00,WUHU216HW,2013-05-10 08:46:00,
2013-05-10 09:51:00,57.6,46.7,29.52,NW,315,2.2,2.2,67,0.00,,,0.00,WUHU216HW,2013-05-10 08:51:00,
2013-05-10 09:56:00,56.5,46.4,29.52,WNW,293,1.6,2.2,69,0.00,,,0.00,WUHU216HW,2013-05-10 08:56:00,
2013-05-10 10:01:00,56.7,46.6,29.52,NNW,338,2.5,2.5,69,0.00,,,0.00,WUHU216HW,2013-05-10 09:01:00,
2013-05-10 10:06:00,55.6,44.8,29.52,WNW,293,2.5,2.5,67,0.00,,,0.00,WUHU216HW,2013-05-10 09:06:00,
2013-05-10 10:11:00,55.6,45.6,29.52,NNW,338,1.8,2.5,69,0.00,,,0.00,WUHU216HW,2013-05-10 09:11:00,
2013-05-10 10:16:00,56.0,46.0,29.52,NNW,338,2.0,2.5,69,0.00,,,0.00,WUHU216HW,2013-05-10 09:16:00,
2013-05-10 10:21:00,57.1,46.2,29.52,NNW,338,2.5,2.5,67,0.00,,,0.00,WUHU216HW,2013-05-10 09:21:00,
2013-05-10 10:26:00,56.0,45.2,29.52,North,0,1.6,2.5,67,0.00,,,0.00,WUHU216HW,2013-05-10 09:26:00,
2013-05-10 10:31:00,55.4,45.1,29.52,ENE,68,2.9,2.9,68,0.00,,,0.00,WUHU216HW,2013-05-10 09:31:00,
2013-05-10 10:36:00,55.6,45.3,29.53,SSE,158,3.4,3.4,68,0.00,,,0.00,WUHU216HW,2013-05-10 09:36:00,
2013-05-10 10:42:00,56.5,45.3,29.53,NNW,338,2.0,3.4,66,0.00,,,0.00,WUHU216HW,2013-05-10 09:42:00,
2013-05-10 10:47:00,56.5,46.1,29.53,ESE,113,0.9,2.2,68,0.00,,,0.00,WUHU216HW,2013-05-10 09:47:00,
2013-05-10 10:52:00,56.5,46.1,29.53,SSE,158,1.8,2.0,68,0.00,,,0.00,WUHU216HW,2013-05-10 09:52:00,
2013-05-10 10:57:00,56.2,45.7,29.53,WSW,248,1.1,1.8,68,0.00,,,0.00,WUHU216HW,2013-05-10 09:57:00,
2013-05-10 11:02:00,56.2,45.7,29.53,NNW,338,1.6,1.8,68,0.00,,,0.00,WUHU216HW,2013-05-10 10:02:00,
2013-05-10 11:07:00,56.3,45.9,29.53,SSE,158,2.0,2.0,68,0.00,,,0.00,WUHU216HW,2013-05-10 10:07:00,
2013-05-10 11:12:00,56.2,45.7,29.53,ENE,68,2.0,2.0,68,0.00,,,0.00,WUHU216HW,2013-05-10 10:12:00,
2013-05-10 11:17:00,55.1,45.1,29.53,SSW,203,1.1,2.7,69,0.00,,,0.00,WUHU216HW,2013-05-10 10:17:00,
2013-05-10 11:22:00,54.9,45.4,29.53,NE,45,2.5,2.7,70,0.00,,,0.00,WUHU216HW,2013-05-10 10:22:00,
2013-05-10 11:27:00,54.7,45.2,29.53,SSE,158,3.4,3.4,70,0.00,,,0.00,WUHU216HW,2013-05-10 10:27:00,
2013-05-10 11:32:00,54.7,45.2,29.53,East,90,2.0,3.4,70,0.00,,,0.00,WUHU216HW,2013-05-10 10:32:00,
2013-05-10 11:37:00,54.5,45.0,29.53,South,180,1.1,3.4,70,0.00,,,0.00,WUHU216HW,2013-05-10 10:37:00,
2013-05-10 11:42:00,54.2,44.6,29.53,NNW,338,1.8,1.8,70,0.00,,,0.00,WUHU216HW,2013-05-10 10:42:00,
2013-05-10 11:47:00,53.8,44.7,29.53,NNE,23,1.6,1.8,71,0.00,,,0.00,WUHU216HW,2013-05-10 10:47:00,
2013-05-10 11:52:00,53.6,45.2,29.53,SSE,158,2.5,2.5,73,0.00,,,0.00,WUHU216HW,2013-05-10 10:52:00,
2013-05-10 11:57:00,53.6,45.2,29.53,East,90,1.1,2.5,73,0.00,,,0.00,WUHU216HW,2013-05-10 10:57:00,
2013-05-10 12:02:00,53.6,45.5,29.53,NNE,23,1.1,2.5,74,0.00,,,0.00,WUHU216HW,2013-05-10 11:02:00,
2013-05-10 12:07:00,53.1,45.4,29.53,NW,315,1.1,1.1,75,0.00,,,0.00,WUHU216HW,2013-05-10 11:07:00,
2013-05-10 12:12:00,53.1,45.7,29.54,SSE,158,1.1,1.1,76,0.00,,,0.00,WUHU216HW,2013-05-10 11:12:00,
2013-05-10 12:17:00,52.9,45.9,29.53,WNW,293,0.9,1.1,77,0.00,,,0.00,WUHU216HW,2013-05-10 11:17:00,
2013-05-10 12:22:00,52.7,46.1,29.53,NW,315,1.1,1.1,78,0.00,,,0.00,WUHU216HW,2013-05-10 11:22:00,
2013-05-10 12:27:00,52.2,45.5,29.53,WNW,293,1.1,2.2,78,0.00,,,0.00,WUHU216HW,2013-05-10 11:27:00,
2013-05-10 12:32:00,52.2,45.5,29.53,WNW,293,0.7,2.2,78,0.00,,,0.00,WUHU216HW,2013-05-10 11:32:00,
2013-05-10 12:37:00,52.2,45.5,29.54,NNE,23,0.9,1.1,78,0.00,,,0.00,WUHU216HW,2013-05-10 11:37:00,
2013-05-10 12:42:00,51.8,45.5,29.54,South,180,0.4,1.8,79,0.00,,,0.00,WUHU216HW,2013-05-10 11:42:00,
2013-05-10 12:47:00,51.7,45.4,29.54,South,180,1.1,1.8,79,0.00,,,0.00,WUHU216HW,2013-05-10 11:47:00,
2013-05-10 12:52:00,51.7,45.4,29.54,North,0,0.4,1.1,79,0.00,,,0.00,WUHU216HW,2013-05-10 11:52:00,
2013-05-10 12:57:00,51.7,45.7,29.55,NNW,338,0.9,1.1,80,0.00,,,0.00,WUHU216HW,2013-05-10 11:57:00,
2013-05-10 13:02:00,51.7,46.0,29.54,ESE,113,0.7,0.9,81,0.00,,,0.00,WUHU216HW,2013-05-10 12:02:00,
2013-05-10 13:07:00,51.8,46.2,29.54,NE,45,1.1,1.1,81,0.00,,,0.00,WUHU216HW,2013-05-10 12:07:00,
2013-05-10 13:12:00,51.8,46.2,29.54,ESE,113,2.5,2.5,81,0.00,,,0.00,WUHU216HW,2013-05-10 12:12:00,
2013-05-10 13:17:00,52.4,46.4,29.54,SE,135,2.0,2.5,80,0.00,,,0.00,WUHU216HW,2013-05-10 12:17:00,
2013-05-10 13:22:00,52.4,46.1,29.55,NE,45,1.1,2.0,79,0.00,,,0.00,WUHU216HW,2013-05-10 12:22:00,
2013-05-10 13:27:00,52.2,45.9,29.55,North,0,1.1,2.0,79,0.00,,,0.00,WUHU216HW,2013-05-10 12:27:00,
2013-05-10 13:32:00,52.0,46.1,29.55,NW,315,1.6,1.6,80,0.00,,,0.00,WUHU216HW,2013-05-10 12:32:00,
2013-05-10 13:37:00,51.8,45.9,29.55,North,0,1.6,2.7,80,0.00,,,0.00,WUHU216HW,2013-05-10 12:37:00,
2013-05-10 13:42:00,51.7,45.7,29.55,North,0,1.8,2.7,80,0.00,,,0.00,WUHU216HW,2013-05-10 12:42:00,
2013-05-10 13:47:00,51.8,45.9,29.55,West,270,1.6,1.8,80,0.00,,,0.00,WUHU216HW,2013-05-10 12:47:00,
2013-05-10 13:52:00,51.8,45.9,29.56,SSW,203,1.8,1.8,80,0.00,,,0.00,WUHU216HW,2013-05-10 12:52:00,
2013-05-10 13:57:00,51.7,45.7,29.56,North,0,1.6,1.8,80,0.00,,,0.00,WUHU216HW,2013-05-10 12:57:00,
2013-05-10 14:02:00,51.5,45.5,29.56,SE,135,1.8,1.8,80,0.00,,,0.00,WUHU216HW,2013-05-10 13:02:00,
2013-05-10 14:07:00,51.3,45.6,29.56,NNE,23,0.4,1.8,81,0.01,,,0.00,WUHU216HW,2013-05-10 13:07:00,
2013-05-10 14:12:00,51.3,46.0,29.56,South,180,1.8,1.8,82,0.01,,,0.01,WUHU216HW,2013-05-10 13:12:00,
2013-05-10 14:17:00,51.1,45.5,29.56,SSE,158,1.6,1.8,81,0.01,,,0.01,WUHU216HW,2013-05-10 13:17:00,
2013-05-10 14:22:00,50.8,45.5,29.56,NE,45,1.8,1.8,82,0.01,,,0.01,WUHU216HW,2013-05-10 13:22:00,
2013-05-10 14:27:00,50.6,45.3,29.56,NE,45,1.1,1.8,82,0.02,,,0.02,WUHU216HW,2013-05-10 13:27:00,
2013-05-10 14:32:00,50.4,45.1,29.56,NNE,23,1.1,1.8,82,0.02,,,0.02,WUHU216HW,2013-05-10 13:32:00,
2013-05-10 14:37:00,50.4,45.1,29.56,SW,225,2.5,2.5,82,0.02,,,0.02,WUHU216HW,2013-05-10 13:37:00,
2013-05-10 14:42:00,50.4,45.1,29.56,NNW,338,0.7,2.5,82,0.02,,,0.02,WUHU216HW,2013-05-10 13:42:00,
2013-05-10 14:47:00,50.4,45.4,29.56,SSE,158,0.7,1.8,83,0.02,,,0.02,WUHU216HW,2013-05-10 13:47:00,
2013-05-10 14:52:00,50.6,45.5,29.56,NE,45,1.1,1.1,83,0.02,,,0.02,WUHU216HW,2013-05-10 13:52:00,
2013-05-10 14:57:00,50.4,45.4,29.56,South,180,1.1,1.1,83,0.02,,,0.02,WUHU216HW,2013-05-10 13:57:00,
2013-05-10 15:02:00,50.4,45.4,29.56,SSW,203,1.3,1.3,83,0.02,,,0.02,WUHU216HW,2013-05-10 14:02:00,
2013-05-10 15:07:00,50.4,45.4,29.56,South,180,1.1,1.3,83,0.01,,,0.02,WUHU216HW,2013-05-10 14:07:00,
2013-05-10 15:12:00,50.4,45.4,29.56,South,180,1.1,1.3,83,0.01,,,0.02,WUHU216HW,2013-05-10 14:12:00,
2013-05-10 15:17:00,50.4,45.7,29.56,SE,135,1.3,1.3,84,0.01,,,0.02,WUHU216HW,2013-05-10 14:17:00,
2013-05-10 15:22:00,50.2,45.6,29.56,SE,135,0.9,1.3,84,0.02,,,0.03,WUHU216HW,2013-05-10 14:22:00,
2013-05-10 15:27:00,50.2,45.6,29.56,NW,315,0.7,1.3,84,0.01,,,0.03,WUHU216HW,2013-05-10 14:27:00,
2013-05-10 15:32:00,50.4,46.0,29.56,NE,45,1.1,1.1,85,0.01,,,0.03,WUHU216HW,2013-05-10 14:32:00,
2013-05-10 15:37:00,50.2,45.6,29.56,SSW,203,0.4,1.1,84,0.01,,,0.03,WUHU216HW,2013-05-10 14:37:00,
2013-05-10 15:42:00,50.4,45.7,29.55,NNE,23,0.7,1.1,84,0.01,,,0.03,WUHU216HW,2013-05-10 14:42:00,
2013-05-10 15:47:00,50.2,45.6,29.55,SSE,158,0.2,0.7,84,0.01,,,0.03,WUHU216HW,2013-05-10 14:47:00,
2013-05-10 15:52:00,50.0,45.4,29.55,SSE,158,1.1,1.1,84,0.01,,,0.03,WUHU216HW,2013-05-10 14:52:00,
2013-05-10 15:57:00,50.0,45.4,29.55,SSE,158,0.2,1.1,84,0.01,,,0.03,WUHU216HW,2013-05-10 14:57:00,
2013-05-10 16:02:00,50.0,45.4,29.55,SSE,158,0.7,1.1,84,0.01,,,0.03,WUHU216HW,2013-05-10 15:02:00,
2013-05-10 16:07:00,50.0,45.4,29.55,SSE,158,0.7,0.7,84,0.01,,,0.03,WUHU216HW,2013-05-10 15:07:00,
2013-05-10 16:12:00,49.9,45.2,29.55,SSE,158,0.4,0.7,84,0.01,,,0.03,WUHU216HW,2013-05-10 15:12:00,
2013-05-10 16:17:00,49.9,45.2,29.55,SSE,158,0.0,0.7,84,0.01,,,0.03,WUHU216HW,2013-05-10 15:17:00,
2013-05-10 16:22:00,49.7,45.0,29.55,SE,135,0.4,0.4,84,0.00,,,0.03,WUHU216HW,2013-05-10 15:22:00,
2013-05-10 16:27:00,49.7,45.3,29.55,NNE,23,0.7,0.7,85,0.00,,,0.03,WUHU216HW,2013-05-10 15:27:00,
2013-05-10 16:32:00,49.5,44.8,29.55,SE,135,0.4,0.7,84,0.00,,,0.03,WUHU216HW,2013-05-10 15:32:00,
2013-05-10 16:37:00,49.7,45.3,29.55,SE,135,0.0,0.7,85,0.00,,,0.03,WUHU216HW,2013-05-10 15:37:00,
2013-05-10 16:42:00,49.7,45.3,29.55,SSE,158,1.1,1.1,85,0.00,,,0.03,WUHU216HW,2013-05-10 15:42:00,
2013-05-10 16:47:00,49.5,45.1,29.55,SSE,158,0.0,1.1,85,0.00,,,0.03,WUHU216HW,2013-05-10 15:47:00,
2013-05-10 16:52:00,49.3,44.9,29.54,SSE,158,0.4,0.7,85,0.00,,,0.03,WUHU216HW,2013-05-10 15:52:00,
2013-05-10 16:57:00,49.3,44.9,29.54,WNW,293,1.8,1.8,85,0.00,,,0.03,WUHU216HW,2013-05-10 15:57:00,
2013-05-10 17:02:00,49.3,45.3,29.55,NW,315,2.0,2.0,86,0.01,,,0.04,WUHU216HW,2013-05-10 16:02:00,
2013-05-10 17:07:00,49.5,46.1,29.54,SSE,158,3.6,3.6,88,0.01,,,0.04,WUHU216HW,2013-05-10 16:07:00,
2013-05-10 17:12:00,49.7,46.3,29.55,SE,135,1.8,3.6,88,0.01,,,0.04,WUHU216HW,2013-05-10 16:12:00,
2013-05-10 17:17:00,49.7,46.3,29.55,NE,45,1.3,3.6,88,0.01,,,0.04,WUHU216HW,2013-05-10 16:17:00,
2013-05-10 17:22:00,49.9,46.4,29.55,SSE,158,2.2,2.2,88,0.01,,,0.04,WUHU216HW,2013-05-10 16:22:00,
2013-05-10 17:27:00,49.7,46.3,29.55,SSE,158,1.1,2.2,88,0.01,,,0.04,WUHU216HW,2013-05-10 16:27:00,
2013-05-10 17:32:00,49.5,45.7,29.55,ENE,68,4.7,4.7,87,0.01,,,0.04,WUHU216HW,2013-05-10 16:32:00,
2013-05-10 17:37:00,49.5,45.7,29.55,NNW,338,4.3,4.7,87,0.01,,,0.04,WUHU216HW,2013-05-10 16:37:00,
2013-05-10 17:42:00,48.8,44.7,29.56,NNE,23,1.3,4.7,86,0.01,,,0.04,WUHU216HW,2013-05-10 16:42:00,
2013-05-10 17:47:00,48.6,44.9,29.56,NNW,338,3.4,4.0,87,0.01,,,0.04,WUHU216HW,2013-05-10 16:47:00,
2013-05-10 17:52:00,48.4,44.7,29.56,WNW,293,2.2,3.4,87,0.01,,,0.04,WUHU216HW,2013-05-10 16:52:00,
2013-05-10 17:57:00,48.2,44.6,29.56,ENE,68,2.5,3.4,87,0.00,,,0.04,WUHU216HW,2013-05-10 16:57:00,
2013-05-10 18:02:00,48.1,44.4,29.57,SE,135,1.1,2.5,87,0.00,,,0.04,WUHU216HW,2013-05-10 17:02:00,
2013-05-10 18:07:00,47.9,44.2,29.56,WNW,293,1.6,2.5,87,0.00,,,0.04,WUHU216HW,2013-05-10 17:07:00,
2013-05-10 18:12:00,47.9,44.2,29.57,WNW,293,3.4,3.4,87,0.00,,,0.04,WUHU216HW,2013-05-10 17:12:00,
2013-05-10 18:17:00,47.7,44.0,29.57,NNW,338,2.5,3.4,87,0.00,,,0.04,WUHU216HW,2013-05-10 17:17:00,
2013-05-10 18:22:00,47.5,43.8,29.57,WNW,293,2.7,2.9,87,0.00,,,0.04,WUHU216HW,2013-05-10 17:22:00,
2013-05-10 18:27:00,47.3,43.7,29.57,NW,315,2.5,2.7,87,0.00,,,0.04,WUHU216HW,2013-05-10 17:27:00,
2013-05-10 18:32:00,47.3,44.0,29.58,SW,225,2.5,2.7,88,0.00,,,0.04,WUHU216HW,2013-05-10 17:32:00,
2013-05-10 18:37:00,47.3,44.0,29.57,NW,315,2.0,2.5,88,0.00,,,0.04,WUHU216HW,2013-05-10 17:37:00,
2013-05-10 18:42:00,47.2,43.6,29.58,SE,135,3.8,3.8,87,0.00,,,0.04,WUHU216HW,2013-05-10 17:42:00,
2013-05-10 18:47:00,47.0,43.4,29.58,SE,135,0.9,3.8,87,0.01,,,0.04,WUHU216HW,2013-05-10 17:47:00,
2013-05-10 18:52:00,46.8,43.2,29.59,ENE,68,1.1,3.8,87,0.01,,,0.05,WUHU216HW,2013-05-10 17:52:00,
2013-05-10 18:57:00,46.6,43.0,29.59,SSE,158,1.1,1.1,87,0.01,,,0.05,WUHU216HW,2013-05-10 17:57:00,
2013-05-10 19:02:00,46.4,42.9,29.59,WNW,293,1.3,1.3,87,0.01,,,0.05,WUHU216HW,2013-05-10 18:02:00,
2013-05-10 19:07:00,46.4,42.9,29.60,West,270,1.3,1.3,87,0.01,,,0.05,WUHU216HW,2013-05-10 18:07:00,
2013-05-10 19:12:00,46.3,42.7,29.60,ESE,113,1.8,1.8,87,0.01,,,0.05,WUHU216HW,2013-05-10 18:12:00,
2013-05-10 19:17:00,46.1,42.5,29.60,WNW,293,2.9,2.9,87,0.01,,,0.05,WUHU216HW,2013-05-10 18:17:00,
2013-05-10 19:22:00,46.1,42.8,29.59,West,270,1.8,2.9,88,0.01,,,0.05,WUHU216HW,2013-05-10 18:22:00,
2013-05-10 19:27:00,46.1,42.8,29.59,NNW,338,3.4,3.4,88,0.01,,,0.05,WUHU216HW,2013-05-10 18:27:00,
2013-05-10 19:32:00,46.1,42.5,29.59,WNW,293,2.0,3.4,87,0.01,,,0.05,WUHU216HW,2013-05-10 18:32:00,
2013-05-10 19:37:00,46.1,42.5,29.59,WNW,293,2.5,3.4,87,0.01,,,0.05,WUHU216HW,2013-05-10 18:37:00,
2013-05-10 19:42:00,45.9,42.3,29.59,WNW,293,0.7,2.5,87,0.01,,,0.05,WUHU216HW,2013-05-10 18:42:00,
2013-05-10 19:47:00,45.9,42.3,29.59,West,270,0.9,1.6,87,0.00,,,0.05,WUHU216HW,2013-05-10 18:47:00,
2013-05-10 19:52:00,45.9,42.3,29.59,WSW,248,0.4,0.9,87,0.00,,,0.05,WUHU216HW,2013-05-10 18:52:00,
2013-05-10 19:57:00,45.9,42.3,29.59,SSW,203,0.9,0.9,87,0.00,,,0.05,WUHU216HW,2013-05-10 18:57:00,
2013-05-10 20:02:00,45.9,42.3,29.59,West,270,1.8,1.8,87,0.00,,,0.05,WUHU216HW,2013-05-10 19:02:00,
2013-05-10 20:07:00,45.9,42.3,29.59,SSW,203,0.7,1.8,87,0.00,,,0.05,WUHU216HW,2013-05-10 19:07:00,
2013-05-10 20:12:00,46.1,42.1,29.59,SSW,203,0.4,1.8,86,0.00,,,0.05,WUHU216HW,2013-05-10 19:12:00,
2013-05-10 20:17:00,45.9,41.9,29.59,SSW,203,0.4,0.7,86,0.00,,,0.05,WUHU216HW,2013-05-10 19:17:00,
2013-05-10 20:22:00,45.7,41.8,29.58,SSW,203,0.9,0.9,86,0.00,,,0.05,WUHU216HW,2013-05-10 19:22:00,
2013-05-10 20:27:00,45.7,41.8,29.58,East,90,0.2,0.9,86,0.00,,,0.05,WUHU216HW,2013-05-10 19:27:00,
2013-05-10 20:33:00,45.5,41.3,29.59,North,0,0.4,0.9,85,0.00,,,0.05,WUHU216HW,2013-05-10 19:33:00,
2013-05-10 20:38:00,45.2,41.0,29.59,ENE,68,0.7,0.7,85,0.00,,,0.05,WUHU216HW,2013-05-10 19:38:00,
2013-05-10 20:43:00,45.0,40.8,29.59,NNW,338,0.4,0.7,85,0.00,,,0.05,WUHU216HW,2013-05-10 19:43:00,
2013-05-10 20:48:00,44.8,40.6,29.59,ENE,68,1.1,1.1,85,0.00,,,0.05,WUHU216HW,2013-05-10 19:48:00,
2013-05-10 20:53:00,44.6,40.4,29.60,NNW,338,0.2,1.1,85,0.00,,,0.05,WUHU216HW,2013-05-10 19:53:00,
2013-05-10 20:58:00,44.3,40.1,29.60,WNW,293,1.3,1.3,85,0.00,,,0.05,WUHU216HW,2013-05-10 19:58:00,
2013-05-10 21:03:00,44.1,39.9,29.60,WNW,293,1.1,1.3,85,0.00,,,0.05,WUHU216HW,2013-05-10 20:03:00,
2013-05-10 21:08:00,43.9,39.7,29.60,WNW,293,0.0,1.3,85,0.00,,,0.05,WUHU216HW,2013-05-10 20:08:00,
2013-05-10 21:13:00,43.6,39.3,29.60,WNW,293,0.0,1.1,85,0.00,,,0.05,WUHU216HW,2013-05-10 20:13:00,
2013-05-10 21:18:00,43.4,39.2,29.60,WNW,293,0.0,0.0,85,0.00,,,0.05,WUHU216HW,2013-05-10 20:18:00,
2013-05-10 21:23:00,43.0,38.8,29.60,WNW,293,0.0,0.0,85,0.00,,,0.05,WUHU216HW,2013-05-10 20:23:00,
2013-05-10 21:28:00,42.8,38.9,29.60,WNW,293,0.0,0.0,86,0.00,,,0.05,WUHU216HW,2013-05-10 20:28:00,
2013-05-10 21:33:00,42.8,38.6,29.60,WNW,293,0.0,0.0,85,0.00,,,0.05,WUHU216HW,2013-05-10 20:33:00,
2013-05-10 21:38:00,42.7,38.4,29.60,WNW,293,0.0,0.0,85,0.00,,,0.05,WUHU216HW,2013-05-10 20:38:00,
2013-05-10 21:43:00,42.5,38.3,29.60,WNW,293,0.0,0.0,85,0.00,,,0.05,WUHU216HW,2013-05-10 20:43:00,
2013-05-10 21:48:00,42.5,38.3,29.61,WNW,293,0.0,0.0,85,0.00,,,0.05,WUHU216HW,2013-05-10 20:48:00,
2013-05-10 21:53:00,42.3,38.1,29.61,WNW,293,0.0,0.0,85,0.00,,,0.05,WUHU216HW,2013-05-10 20:53:00,
2013-05-10 21:58:00,42.3,38.3,29.61,WNW,293,0.4,0.4,86,0.00,,,0.05,WUHU216HW,2013-05-10 20:58:00,
2013-05-10 22:03:00,42.7,39.1,29.61,NNW,338,0.7,1.8,87,0.02,,,0.05,WUHU216HW,2013-05-10 21:03:00,
2013-05-10 22:08:00,42.8,39.3,29.60,WNW,293,1.6,1.8,87,0.03,,,0.08,WUHU216HW,2013-05-10 21:08:00,
2013-05-10 22:13:00,42.8,39.3,29.60,WNW,293,0.0,1.6,87,0.03,,,0.08,WUHU216HW,2013-05-10 21:13:00,
2013-05-10 22:18:00,42.8,39.3,29.60,WNW,293,0.0,1.6,87,0.03,,,0.08,WUHU216HW,2013-05-10 21:18:00,
2013-05-10 22:23:00,42.8,39.3,29.60,WNW,293,1.1,1.1,87,0.03,,,0.08,WUHU216HW,2013-05-10 21:23:00,
2013-05-10 22:28:00,42.8,39.3,29.60,WNW,293,0.0,1.1,87,0.03,,,0.08,WUHU216HW,2013-05-10 21:28:00,
2013-05-10 22:33:00,42.8,39.5,29.60,WNW,293,0.4,0.4,88,0.03,,,0.08,WUHU216HW,2013-05-10 21:33:00,
2013-05-10 22:38:00,42.8,39.3,29.60,WNW,293,0.4,0.4,87,0.03,,,0.08,WUHU216HW,2013-05-10 21:38:00,
2013-05-10 22:43:00,42.8,39.5,29.60,WNW,293,0.9,0.9,88,0.03,,,0.08,WUHU216HW,2013-05-10 21:43:00,
2013-05-10 22:48:00,42.8,39.5,29.60,WNW,293,0.4,1.1,88,0.03,,,0.08,WUHU216HW,2013-05-10 21:48:00,
2013-05-10 22:53:00,42.8,39.5,29.60,WNW,293,1.1,1.1,88,0.03,,,0.08,WUHU216HW,2013-05-10 21:53:00,
2013-05-10 22:58:00,42.8,39.5,29.60,WNW,293,0.4,1.1,88,0.03,,,0.08,WUHU216HW,2013-05-10 21:58:00,
2013-05-10 23:03:00,43.0,39.7,29.61,West,270,0.0,1.1,88,0.01,,,0.08,WUHU216HW,2013-05-10 22:03:00,
2013-05-10 23:08:00,43.2,40.2,29.60,West,270,0.0,0.0,89,0.00,,,0.08,WUHU216HW,2013-05-10 22:08:00,
2013-05-10 23:13:00,43.2,40.2,29.60,West,270,1.1,1.1,89,0.01,,,0.09,WUHU216HW,2013-05-10 22:13:00,
2013-05-10 23:18:00,43.2,39.9,29.59,West,270,0.0,1.1,88,0.02,,,0.10,WUHU216HW,2013-05-10 22:18:00,
2013-05-10 23:23:00,43.2,39.9,29.60,West,270,0.0,1.1,88,0.02,,,0.10,WUHU216HW,2013-05-10 22:23:00,
2013-05-10 23:28:00,43.0,39.7,29.60,WSW,248,0.4,0.4,88,0.02,,,0.10,WUHU216HW,2013-05-10 22:28:00,
2013-05-10 23:33:00,43.0,39.7,29.60,SW,225,0.4,0.4,88,0.02,,,0.10,WUHU216HW,2013-05-10 22:33:00,
2013-05-10 23:38:00,43.0,40.1,29.60,SW,225,0.4,0.4,89,0.02,,,0.10,WUHU216HW,2013-05-10 22:38:00,
2013-05-10 23:43:00,43.0,40.1,29.60,SW,225,0.0,0.4,89,0.02,,,0.10,WUHU216HW,2013-05-10 22:43:00,
2013-05-10 23:48:00,43.0,40.1,29.59,SW,225,0.0,0.4,89,0.02,,,0.10,WUHU216HW,2013-05-10 22:48:00,
2013-05-10 23:53:00,42.8,39.9,29.59,SW,225,0.0,0.7,89,0.02,,,0.10,WUHU216HW,2013-05-10 22:53:00,
2013-05-10 23:58:00,42.8,39.9,29.59,SW,225,0.0,0.7,89,0.02,,,0.10,WUHU216HW,2013-05-10 22:58:00,